Location: Winthrop
(48.4780°N, 120.1850°W)
Time: 11:26:07
(UTC-07:00)

BlueWalker 3 - Visible Passes

Search period start: 07 October 2024 00:00
Search period end: 17 October 2024 00:00
Orbit: 473 x 485 km, 53.2° (Epoch: 06 October)

Date Brightness Start Highest point End Pass type
(mag) Time Alt. Az. Time Alt. Az. Time Alt. Az.
07 Oct 3.0 04:58:22 33° SSE 04:58:41 34° SE 05:02:03 10° ENE visible
07 Oct 2.0 06:32:53 10° WSW 06:36:33 61° NNW 06:40:13 10° ENE visible
08 Oct 3.8 04:31:30 26° ESE 04:31:30 26° ESE 04:33:46 10° ENE visible
08 Oct 1.9 06:05:42 18° W 06:08:17 65° NNW 06:11:58 10° ENE visible
09 Oct 4.7 04:04:31 15° E 04:04:31 15° E 04:05:25 10° E visible
09 Oct 1.8 05:38:43 38° W 05:39:59 69° NNW 05:43:42 10° ENE visible
10 Oct 1.7 05:11:40 74° NNW 05:11:40 74° NNW 05:15:22 10° ENE visible
11 Oct 3.0 04:44:30 41° ENE 04:44:30 41° ENE 04:47:01 10° ENE visible
11 Oct 2.7 06:18:42 14° WNW 06:21:37 39° N 06:25:07 10° ENE visible
12 Oct 4.4 04:17:18 21° ENE 04:17:18 21° ENE 04:18:38 10° ENE visible
12 Oct 2.7 05:51:29 24° WNW 05:53:11 39° N 05:56:42 10° ENE visible
13 Oct 5.2 03:50:02 11° ENE 03:50:02 11° ENE 03:50:12 10° ENE visible
13 Oct 2.6 05:24:13 38° NNW 05:24:43 40° N 05:28:14 10° ENE visible
14 Oct 3.0 04:56:55 37° NNE 04:56:55 37° NNE 04:59:45 10° ENE visible
14 Oct 2.6 06:31:07 10° WNW 06:34:41 45° NNE 06:38:15 10° E visible
15 Oct 4.1 04:29:34 23° NE 04:29:34 23° NE 04:31:14 10° ENE visible
15 Oct 2.6 06:03:45 18° NW 06:06:09 43° N 06:09:42 10° E visible
16 Oct 5.1 04:02:13 13° ENE 04:02:13 13° ENE 04:02:41 10° ENE visible
16 Oct 2.7 05:36:24 31° NW 05:37:34 42° N 05:41:06 10° E visible
